Location: Quedlinburg
(51.7921°N, 11.1414°E)
Time: 13:03:07
(UTC+02:00)

RS-15 - Pass Details

Date: 18 March 2026
Orbit: 1893 x 2152 km, 64.8° (Epoch: 22 April)

Event Time Altitude Azimuth Distance (km) Brightness Sun altitude
Rises 23:54:23 0° 276° (W) 5,295 10.5 -38.9°
Reaches altitude 10° 23:57:55 10° 283° (WNW) 4,317 10.0 -39.0°
Maximum altitude 00:08:21 43° 354° (N) 2,568 8.8 -39.1°
Drops below altitude 10° 00:19:15 10° 64° (ENE) 4,498 10.1 -39.2°
Sets 00:23:02 0° 71° (ENE) 5,535 10.6 -39.2°
